Desert Rock Airport
KDRA : now visible

Airfield :











YOU CAN JOIN US ON...

 
LOGIN :

Register | Disclaimer

   EN    FR    IT 

 









Legend :    VFR   Marginal VFR   IFR   Intensive IFR   Very Intensive IFR
Visi :
Ceiling :
>= 8 km
>= 3000ft
5 to 8 km
1000 to 3000 ft
1500m to 5 km
500 to 1000 ft
800 to 1500m
200 to 500 ft
< 800m
< 200 ft
Symbols :   Thunderstorms  Fog  Heavy snow  Heavy precipitations  Wind > 20 kt






- Airport Elevation : 3314 ft


KDRA - Desert Rock

CURRENT METAR :
  • 290453Z AUTO 21007KT 10SM CLR 25/M04 A2993 RMK AO2 SLP086 T02501039

EXPIRED METARs :
  • 290353Z AUTO 17004KT 10SM CLR 27/M04 A2992 RMK AO2 SLP083 T02721044
  • 290253Z AUTO 19011G19KT 10SM CLR 29/M08 A2991 RMK AO2 SLP080 T02941078 55004
  • 290153Z AUTO 20011G21KT 10SM CLR 31/M07 A2991 RMK AO2 SLP080 T03111072
  • 290053Z AUTO 23010G23KT 10SM CLR 32/M07 A2991 RMK AO2 PK WND 20026/0013 SLP085 T03221067

Expired Forecast.



MET'MAP, your aeronautical weather chart ! - Copyright ORBIFLY December 2007 - Disclaimer

ORBIFLY MET'MAP TEAM :

Programming & Development : Alexandra Zaïnal
Original concept : Baudouin d'Aumeries
Technical & hardware support : Manuel Goepfert
Assistance : Marc-Olivier Méhu




SOURCES & CREDITS :

   NOAA       Earth
Advisory